This demonstration page uses our WeatherBlox Daily Observations layout. Learn more.

Left ArrowRight Arrow

Hourly Observations for June 11, 2017

Temp ( °F °C ) Dew Point ( °F °C ) Humidity (%) Winds ( mph kmh ) Pressure ( in mb ) Visibility ( mi km ) Precip ( " mm )
12:51 am 00:51 Clear 71 21.7 14 -10 11 11 ESE 5 7 29.66 1005 10 16 N/A
1:51 am 01:51 Clear 68 20 11 -11.7 11 11 E 5 7 29.66 1004 10 16 N/A
2:51 am 02:51 Clear 68 20 12 -11.1 11 11 SE 5 7 29.66 1004 10 16 N/A
3:51 am 03:51 Clear 70 21.1 13 -10.6 11 11 VRB 5 7 29.67 1005 10 16 N/A
4:51 am 04:51 Clear 65 18.3 15 -9.4 14 14 SE 7 11 29.69 1006 10 16 N/A
5:51 am 05:51 Sunny 67 19.4 17 -8.3 15 15 SSE 3 6 29.71 1006 10 16 N/A
6:51 am 06:51 Sunny 74 23.3 21 -6.1 14 14 NE 3 6 29.73 1007 10 16 N/A
7:51 am 07:51 Sunny 78 25.6 23 -5 13 13 WNW 3 6 29.74 1007 10 16 N/A
8:51 am 08:51 Sunny 83 28.3 20 -6.7 10 10 ENE 7 11 29.75 1007 10 16 N/A
9:51 am 09:51 Sunny 86 30 19 -7.2 8 8 ENE 6 9 29.74 1007 10 16 N/A
10:51 am 10:51 Sunny 88 31.1 18 -7.8 7 7 VRB 3 6 29.73 1007 10 16 N/A
11:51 am 11:51 Sunny 91 32.8 17 -8.3 6 6 SSE 8 13 29.72 1006 10 16 N/A
12:51 pm 12:51 Sunny 94 34.4 16 -8.9 6 6 W 8 13 29.70 1006 10 16 N/A
1:51 pm 13:51 Sunny 95 35 16 -8.9 5 5 undefined N/A 29.67 1005 10 16 N/A
2:51 pm 14:51 Sunny 98 36.7 15 -9.4 5 5 WNW 15 24 29.64 1004 10 16 N/A
3:51 pm 15:51 Sunny 98 36.7 14 -10 4 4 NW 8 13 29.62 1003 10 16 N/A
4:51 pm 16:51 Sunny 98 36.7 12 -11.1 4 4 VRB 3 6 29.61 1003 10 16 N/A
5:51 pm 17:51 Sunny 97 36.1 13 -10.6 4 4 WSW 10 17 29.61 1003 10 16 N/A
6:51 pm 18:51 Sunny 94 34.4 15 -9.4 5 5 W 17 28 29.61 1003 10 16 N/A
7:51 pm 19:51 Clear 89 31.7 18 -7.8 7 7 W 13 20 29.63 1004 10 16 N/A
8:51 pm 20:51 Clear 83 28.3 19 -7.2 9 9 WNW 6 9 29.67 1005 10 16 N/A
9:51 pm 21:51 Clear 79 26.1 18 -7.8 10 10 undefined N/A 29.70 1006 10 16 N/A
10:51 pm 22:51 Clear 76 24.4 20 -6.7 12 12 NW 7 11 29.72 1007 10 16 N/A
11:51 pm 23:51 Clear 76 24.4 29 -1.7 18 18 NNW 6 9 29.72 1006 10 16 N/A

Powered by AerisWeather